TimeMST,TemperatureF,Dew PointF,Humidity,Sea Level PressureIn,VisibilityMPH,Wind Direction,Wind SpeedMPH,Gust SpeedMPH,PrecipitationIn,Events,Conditions,WindDirDegrees,DateUTC
12:53 AM,28.0,19.0,69,29.73,10.0,West,3.5,-,N/A,,Overcast,270,2011-11-18 07:53:00
1:53 AM,28.9,19.0,67,29.72,10.0,West,4.6,-,N/A,,Overcast,270,2011-11-18 08:53:00
2:53 AM,27.0,19.0,72,29.73,10.0,Calm,Calm,-,N/A,,Overcast,0,2011-11-18 09:53:00
3:53 AM,26.1,19.0,75,29.72,10.0,ESE,3.5,-,N/A,,Overcast,110,2011-11-18 10:53:00
4:53 AM,26.1,19.0,75,29.75,10.0,Calm,Calm,-,N/A,,Overcast,0,2011-11-18 11:53:00
5:53 AM,21.9,16.0,78,29.78,8.0,North,15.0,-,0.00,Snow,Light Snow,350,2011-11-18 12:53:00
6:53 AM,21.0,15.1,78,29.80,4.0,NW,8.1,-,0.00,Snow,Light Snow,310,2011-11-18 13:53:00
7:53 AM,19.9,15.1,81,29.82,2.5,NW,10.4,-,0.00,Snow,Light Snow,310,2011-11-18 14:53:00
8:19 AM,19.4,15.8,86,29.67,1.5,NW,8.1,-,0.01,Snow,Light Snow,320,2011-11-18 15:19:00
8:28 AM,19.4,15.8,86,29.68,1.0,NW,12.7,-,0.01,Snow,Light Snow,320,2011-11-18 15:28:00
8:36 AM,19.4,15.8,86,29.68,1.0,NW,11.5,-,0.01,Snow,Light Snow,310,2011-11-18 15:36:00
8:48 AM,17.6,15.8,93,29.68,1.0,NW,13.8,-,0.02,Snow,Light Snow,310,2011-11-18 15:48:00
8:53 AM,18.0,15.1,88,29.85,1.0,NW,11.5,-,0.03,Fog-Snow,Snow,320,2011-11-18 15:53:00
9:00 AM,17.6,15.8,93,29.69,0.2,NW,9.2,-,0.01,Fog-Snow,Heavy Snow,310,2011-11-18 16:00:00
9:50 AM,15.8,12.2,86,29.70,0.2,NW,11.5,-,0.05,Fog-Snow,Heavy Snow,310,2011-11-18 16:50:00
9:53 AM,16.0,12.9,88,29.88,0.2,WNW,11.5,-,0.06,Fog-Snow,Heavy Snow,300,2011-11-18 16:53:00
10:05 AM,15.8,12.2,86,29.71,0.2,NW,12.7,18.4,0.01,Fog-Snow,Heavy Snow,310,2011-11-18 17:05:00
10:18 AM,15.8,12.2,86,29.71,0.5,NNW,11.5,-,0.01,Fog-Snow,Snow,340,2011-11-18 17:18:00
10:30 AM,15.8,10.4,79,29.71,0.8,NNW,6.9,-,0.02,Snow,Light Snow,330,2011-11-18 17:30:00
10:53 AM,14.0,10.0,84,29.89,0.5,NW,9.2,-,0.03,Fog-Snow,Snow,310,2011-11-18 17:53:00
11:16 AM,15.8,8.6,73,29.72,1.0,NW,10.4,-,0.01,Snow,Light Snow,320,2011-11-18 18:16:00
11:28 AM,15.8,8.6,73,29.72,0.5,NW,12.7,-,0.01,Snow,Snow,320,2011-11-18 18:28:00
11:53 AM,14.0,9.0,80,29.90,1.0,NNW,9.2,-,0.02,Snow,Light Snow,330,2011-11-18 18:53:00
12:07 PM,12.2,8.6,85,29.71,2.0,NNW,11.5,-,0.00,Snow,Light Snow,330,2011-11-18 19:07:00
12:17 PM,14.0,6.8,73,29.71,4.0,WNW,9.2,-,0.00,Snow,Light Snow,300,2011-11-18 19:17:00
12:46 PM,12.2,6.8,79,29.70,2.0,NW,12.7,-,0.00,Snow,Light Snow,320,2011-11-18 19:46:00
12:53 PM,12.9,6.1,74,29.89,2.0,NW,8.1,-,0.00,Snow,Light Snow,320,2011-11-18 19:53:00
1:03 PM,12.2,5.0,73,29.70,2.5,NNW,12.7,-,0.00,Snow,Light Snow,330,2011-11-18 20:03:00
1:17 PM,12.2,5.0,73,29.70,2.5,NW,13.8,-,0.00,Snow,Light Snow,320,2011-11-18 20:17:00
1:30 PM,12.2,5.0,73,29.71,1.2,NW,16.1,-,0.00,Snow,Light Snow,320,2011-11-18 20:30:00
1:53 PM,10.4,5.0,79,29.71,0.8,NW,12.7,-,N/A,Snow,Light Snow,320,2011-11-18 20:53:00
2:05 PM,10.4,3.2,73,29.71,1.0,NW,9.2,21.9,0.00,Snow,Light Snow,320,2011-11-18 21:05:00
2:19 PM,10.4,3.2,73,29.71,1.8,NNW,16.1,21.9,0.00,Snow,Light Snow,340,2011-11-18 21:19:00
2:26 PM,10.4,3.2,73,29.71,0.8,WNW,9.2,21.9,0.00,Snow,Light Snow,300,2011-11-18 21:26:00
2:37 PM,10.4,5.0,79,29.71,0.5,NW,10.4,18.4,0.01,Snow,Snow,310,2011-11-18 21:37:00
2:53 PM,10.0,6.1,84,29.92,0.5,WNW,10.4,17.3,0.02,Fog-Snow,Snow,300,2011-11-18 21:53:00
3:01 PM,10.4,6.8,85,29.72,0.5,NW,8.1,-,0.01,Fog-Snow,Snow,320,2011-11-18 22:01:00
3:30 PM,8.6,5.0,85,29.72,1.0,NNW,8.1,-,0.01,Snow,Light Snow,340,2011-11-18 22:30:00
3:53 PM,9.0,5.0,84,29.94,1.2,WNW,9.2,-,0.02,Snow,Light Snow,290,2011-11-18 22:53:00
4:02 PM,8.6,3.2,79,29.73,2.0,NW,8.1,-,0.00,Snow,Light Snow,320,2011-11-18 23:02:00
4:11 PM,8.6,3.2,79,29.73,4.0,WNW,8.1,18.4,0.00,Snow,Light Snow,300,2011-11-18 23:11:00
4:53 PM,8.6,1.4,73,29.74,10.0,NW,9.2,-,N/A,,Overcast,310,2011-11-18 23:53:00
5:53 PM,8.1,-0.9,67,29.97,5.0,NW,9.2,-,0.00,Snow,Light Snow,310,2011-11-19 00:53:00
5:58 PM,6.8,-0.4,72,29.75,2.5,WNW,8.1,-,0.00,Snow,Light Snow,290,2011-11-19 00:58:00
6:53 PM,7.0,1.9,80,29.98,2.5,West,6.9,-,0.01,Snow,Light Snow,280,2011-11-19 01:53:00
7:08 PM,6.8,-0.4,72,29.75,3.0,NW,9.2,-,0.00,Snow,Light Snow,310,2011-11-19 02:08:00
7:18 PM,6.8,-0.4,72,29.75,3.0,WNW,10.4,-,0.00,Snow,Light Snow,300,2011-11-19 02:18:00
7:25 PM,6.8,-0.4,72,29.75,2.5,NW,9.2,-,0.00,Snow,Light Snow,310,2011-11-19 02:25:00
7:53 PM,6.1,1.0,80,29.99,2.0,West,11.5,-,0.00,Snow,Light Snow,280,2011-11-19 02:53:00
8:06 PM,6.8,1.4,79,29.75,1.8,NW,11.5,-,0.00,Snow,Light Snow,310,2011-11-19 03:06:00
8:34 PM,6.8,1.4,79,29.76,1.2,WNW,9.2,-,0.01,Snow,Light Snow,300,2011-11-19 03:34:00
8:53 PM,6.1,1.0,80,29.99,1.2,NW,10.4,-,0.02,Snow,Light Snow,320,2011-11-19 03:53:00
9:21 PM,6.8,1.4,79,29.76,1.0,WNW,8.1,-,0.01,Snow,Light Snow,290,2011-11-19 04:21:00
9:37 PM,6.8,1.4,79,29.77,1.0,WNW,8.1,-,0.01,Snow,Light Snow,290,2011-11-19 04:37:00
9:48 PM,6.8,1.4,79,29.76,1.0,WNW,8.1,-,0.02,Snow,Light Snow,290,2011-11-19 04:48:00
9:53 PM,6.8,1.4,79,29.76,1.0,WNW,6.9,-,N/A,Snow,Light Snow,290,2011-11-19 04:53:00
10:20 PM,5.0,1.4,85,29.78,0.8,WNW,9.2,-,0.02,Snow,Light Snow,290,2011-11-19 05:20:00
10:53 PM,5.0,1.9,87,30.02,0.8,WNW,8.1,-,0.04,Snow,Light Snow,290,2011-11-19 05:53:00
11:21 PM,5.0,1.4,85,29.77,1.0,WNW,8.1,-,0.02,Snow,Light Snow,290,2011-11-19 06:21:00
11:31 PM,5.0,1.4,85,29.78,1.2,WNW,8.1,-,0.02,Snow,Light Snow,300,2011-11-19 06:31:00
11:38 PM,5.0,1.4,85,29.78,1.5,WNW,8.1,-,0.02,Snow,Light Snow,290,2011-11-19 06:38:00
11:53 PM,5.0,1.0,84,30.03,1.2,WNW,8.1,-,0.02,Snow,Light Snow,290,2011-11-19 06:53:00